[[[{"header":{"parameterUnit":"kt","parameterCategory":2,"dx":1,"dy":1,"la1":30.253999710083008,"la2":30.299108505249023,"lo1":-89.0895004272461,"lo2":-89.04439544677734,"nx":28,"ny":28,"refTime":"2022-10-10T21:00:00:Z","depth":0,"parameterNumber":1,"parameterNumberName":"U-component_of_WINDS"},"data":[-6.9832,-6.9961,-6.9978,-7.0133,-7.0175,-7.0284,-7.0328,-7.0388,-7.0439,-7.0573,-7.0652,-7.0683,-7.0741,-7.0841,-7.0928,-7.094,-7.0974,-7.1009,-7.1016,-7.0845,-7.0822,-7.08,-7.0769,-7.1018,-7.1018,-7.1189,-7.1191,-7.1192,-6.9711,-6.9753,-6.984,-6.9935,-7.001,-6.9987,-7.0061,-7.0125,-7.0223,-7.0288,-7.0366,-7.0485,-7.058,-7.0627,-7.0721,-7.0783,-7.0776,-7.0807,-7.08,-7.0809,-7.0629,-7.0595,-7.0811,-7.0811,-7.0811,-7.0811,-7.0811,-7.0811,-6.9493,-6.957,-6.9636,-6.973,-6.9782,-6.9846,-6.9922,-6.9956,-7.0041,-7.014,-7.0143,-7.0254,-7.0321,-7.0442,-7.0486,-7.0574,-7.0541,-7.0579,-7.0588,-7.0597,-7.0604,-7.0353,-7.0591,-7.059,-7.059,-7.059,-7.0589,0,-6.9337,-6.9346,-6.9428,-6.9518,-6.9587,-6.9657,-6.9723,-6.9771,-6.9792,-6.9861,-6.9963,-7.0024,-7.0146,-7.0242,-7.0334,-7.0371,-7.035,-7.0351,-7.0377,-7.0374,-7.0362,-7.0367,-7.0069,-7.0342,-7.034,-7.0338,-7.0337,-7.0336,-6.9116,-6.9204,-6.9279,-6.9336,-6.9375,-6.9466,-6.9523,-6.9535,-6.9595,-6.9679,-6.9746,-6.9844,-6.9921,-7.0082,-7.0117,-7.0208,-7.0197,-7.03,-7.021,-7.0207,-7.0196,-7.0189,-7.0197,-7.0315,-7.0317,-7.032,-7.0321,0,-6.899,-6.9013,-6.9153,-6.9218,-6.9237,-6.9329,-6.9384,-6.9461,-6.9484,-6.9593,-6.9619,-6.9654,-6.9754,-6.9773,-6.989,-6.9897,-7.0049,-7.0039,-7.0027,-7.0024,-7.0116,-7.0106,-7.0414,-7.0455,-7.02,-7.0203,-7.0205,0,-6.8808,-6.8922,-6.8949,-6.9029,-6.9157,-6.9163,-6.929,-6.9321,-6.9376,-6.9461,-6.9442,-6.9522,-6.9534,-6.9619,-6.9629,-6.9757,-6.9779,-6.9791,-6.9791,-6.979,-6.9788,-6.9817,-6.9803,-6.9792,-6.979,-6.9789,-6.9787,0,-6.8604,-6.8752,-6.8882,-6.8919,-6.8998,-6.9059,-6.9095,-6.9155,-6.921,-6.9286,-6.9321,-6.9409,-6.9456,-6.9525,-6.9535,-6.9474,-6.9693,-6.961,-6.9704,-6.9704,-6.9747,-6.9743,-7.0017,-6.9785,-6.9785,-6.9784,-6.9784,0,-6.8458,-6.8533,-6.8718,-6.8782,-6.882,-6.8907,-6.8991,-6.9069,-6.9134,-6.9145,-6.9204,-6.919,-6.9304,-6.9221,-6.9377,-6.9294,-6.9342,-6.9364,-6.9371,-6.9377,-6.9281,-6.9428,-6.9691,-6.9717,-6.9391,-6.9388,-6.9385,0,-6.8217,-6.8409,-6.8413,-6.859,-6.868,-6.8648,-6.8745,-6.8802,-6.8824,-6.8904,-6.8929,-6.902,-6.8962,-6.8992,-6.9068,-6.9095,-6.9205,-6.9082,-6.9196,-6.92,-6.9176,-6.9419,-6.945,-6.9632,-6.9343,-6.9348,-6.9351,0,-6.8032,-6.8123,-6.8154,-6.8195,-6.8269,-6.8344,-6.8455,-6.8546,-6.8598,-6.8665,-6.8756,-6.8886,-6.8846,-6.8896,-6.8892,-6.8971,-6.9131,-6.8916,-6.8918,-6.8952,-6.9324,-6.9354,-6.9385,-6.9112,-6.9117,-6.9122,-6.9318,0,-6.7801,-6.7899,-6.7984,-6.8073,-6.8134,-6.8245,-6.826,-6.8322,-6.8312,-6.8331,-6.8467,-6.8516,-6.8606,-6.8646,-6.8636,-6.8808,-6.8781,-6.8737,-6.8651,-6.8812,-6.8877,-6.8904,-6.8555,-6.8552,-6.855,-6.8549,0,0,-6.7563,-6.7702,-6.77,-6.7805,-6.7855,-6.7817,-6.7934,-6.7979,-6.8069,-6.8105,-6.8059,-6.8246,-6.8287,-6.8449,-6.8501,-6.8538,-6.857,-6.8511,-6.8736,-6.8757,-6.8777,-6.8846,-6.8873,-6.8545,-6.8544,-6.8544,-6.8543,0,-6.748,-6.7523,-6.7637,-6.7684,-6.7751,-6.7764,-6.7792,-6.7851,-6.7868,-6.8,-6.7964,-6.8047,-6.8195,-6.8243,-6.8286,-6.8495,-6.846,-6.8522,-6.8628,-6.8716,-6.8739,-6.876,-6.8833,-6.8859,-6.8538,-6.8538,-6.8538,0,-6.7297,-6.734,-6.7397,-6.7509,-6.7551,-6.7644,-6.7561,-6.7662,-6.7731,-6.768,-6.781,-6.7839,-6.7903,-6.8055,-6.8123,-6.8082,-6.836,-6.8275,-6.8288,-6.8294,-6.838,-6.8408,-6.8434,-6.81,-6.8098,-6.8097,0,0,-6.7222,-6.7312,-6.7359,-6.7491,-6.7521,-6.7541,-6.7591,-6.7584,-6.7642,-6.7665,-6.7699,-6.7757,-6.7843,-6.7899,-6.798,-6.8145,-6.8157,-6.822,-6.8241,-6.8258,-6.8273,-6.8363,-6.8391,-6.8091,-6.8091,-6.809,0,0,-6.7186,-6.7244,-6.7223,-6.7378,-6.7435,-6.7488,-6.7568,-6.7543,-6.7616,-6.7604,-6.7596,-6.7611,-6.7753,-6.7781,-6.77,-6.7949,-6.7866,-6.7885,-6.7924,-6.795,-6.7971,-6.7959,-6.7617,0,0,0,0,0,-6.7105,-6.7237,-6.7217,-6.7245,-6.7384,-6.75,-6.7518,-6.7514,-6.7455,-6.7519,-6.7544,-6.7504,-6.7736,-6.7664,-6.7692,-6.778,-6.8013,-6.8027,-6.804,-6.8129,-6.8157,-6.818,0,0,0,0,0,0,-6.7116,-6.715,-6.7214,-6.7272,-6.7303,-6.7495,-6.7394,-6.7397,-6.7448,-6.7438,-6.7501,-6.7506,-6.7504,-6.765,-6.7675,-6.7759,-6.7608,-6.8019,-6.8031,-6.8041,-6.8139,-6.8161,-6.818,0,0,0,0,0,-6.7125,-6.7152,-6.7375,-6.727,-6.7297,-6.7324,-6.7389,-6.7391,-6.743,-6.7466,-6.747,-6.7422,-6.7507,-6.7528,-6.7664,-6.7748,-6.7591,-6.76,-6.8026,-6.8036,-6.8044,-6.815,0,0,0,0,0,0,-6.7131,-6.7154,-6.738,-6.7388,-6.7219,-6.7313,-6.7328,-6.7385,-6.7454,-6.7459,-6.7386,-6.7378,-6.751,-6.7526,-6.7542,-6.7744,-6.7577,-6.7586,-6.7592,-6.8033,-6.8041,-6.8047,0,0,0,0,0,0,-6.7139,-6.7161,-6.7385,-6.732,-6.732,-6.7304,-6.7317,-6.7431,-6.7455,-6.737,-6.7365,-6.7382,-6.7486,-6.7525,-6.7538,-6.7717,-6.7566,-6.7575,-6.7582,-6.7585,-6.8039,-6.8045,0,0,0,0,0,0,-6.7148,-6.7167,-6.7317,-6.7318,-6.7318,-6.7409,-6.7405,-6.7547,-6.74,-6.7368,-6.7387,-6.7381,-6.7487,-6.7499,-6.7535,-6.7709,-6.7715,-6.7566,-6.7573,-6.7577,-6.758,0,0,0,0,0,0,0,-6.7156,-6.7031,-6.7332,-6.7317,-6.7317,-6.7464,-6.7466,-6.7468,-6.7399,-6.7394,-6.7388,-6.7383,-6.7514,-6.7524,-6.7534,-6.7703,0,0,-6.7566,-6.757,0,0,0,0,0,0,0,0,-6.7022,-6.7029,-6.7333,-6.7334,-6.7336,-6.7464,-6.7466,-6.7468,-6.7398,-6.7394,-6.7389,-6.7385,-6.7517,-6.7525,-6.7533,0,0,0,0,0,0,0,0,0,0,0,0,0,0,0,-6.7333,-6.7334,0,-6.7464,-6.7466,-6.7467,-6.7397,-6.7394,-6.739,-6.7387,-6.7519,-6.7526,-6.7533,0,0,0,0,0,0,0,0,0,0,0,0,0,0,0,0,0,0,0,0,0,0,0,0,0,0,0,0,0,0,0,0,0,0,0,0,0,0,0,0,0,0,0,0,0,0,0,0,0,0,0,0,0,0,0,0,0,0,0,0,0,0,0,0,0,0,0,0,0]}],[{"header":{"parameterUnit":"kt","parameterCategory":2,"dx":1,"dy":1,"la1":30.253999710083008,"la2":30.299108505249023,"lo1":-89.0895004272461,"lo2":-89.04439544677734,"nx":28,"ny":28,"refTime":"2022-10-10T21:00:00:Z","depth":0,"parameterNumber":2,"parameterNumberName":"V-component_of_WINDS"},"data":[5.4623,5.4813,5.4908,5.5168,5.5297,5.549,5.5589,5.5727,5.586,5.61,5.6254,5.6367,5.6535,5.674,5.691,5.6956,5.7022,5.7021,5.7075,5.6997,5.6993,5.6988,5.6951,5.7034,5.7034,5.7144,5.7145,5.7145,5.4558,5.4688,5.4853,5.5078,5.522,5.5279,5.5461,5.5575,5.5746,5.5911,5.6068,5.6285,5.6468,5.6641,5.6832,5.6921,5.6959,5.6966,5.6962,5.6987,5.6907,5.6867,5.6933,5.6933,5.6933,5.6933,5.6933,5.6933,5.4466,5.4576,5.4768,5.4949,5.5087,5.5236,5.5356,5.5494,5.5655,5.5869,5.5949,5.6143,5.6324,5.6601,5.6716,5.6868,5.6877,5.6914,5.6924,5.6931,5.6927,5.6758,5.6905,5.6905,5.6905,5.6905,5.6905,0,5.4428,5.4501,5.4666,5.4859,5.4996,5.5154,5.5315,5.5392,5.5576,5.5701,5.589,5.6014,5.6259,5.6446,5.6646,5.6759,5.6832,5.6848,5.6875,5.684,5.6783,5.6817,5.6683,5.6843,5.6843,5.6843,5.6843,5.6843,5.4344,5.446,5.4707,5.4809,5.4922,5.5085,5.5201,5.5355,5.5471,5.5691,5.5779,5.5969,5.6129,5.6413,5.657,5.6752,5.6789,5.684,5.6816,5.6778,5.6792,5.6784,5.6797,5.6841,5.6842,5.6842,5.6842,0,5.4287,5.4443,5.4654,5.4887,5.4949,5.5062,5.5261,5.5375,5.5496,5.5671,5.572,5.5909,5.6091,5.6241,5.6477,5.655,5.6737,5.6767,5.6676,5.6691,5.6753,5.6745,5.6927,5.696,5.6874,5.6874,5.6875,0,5.4277,5.4423,5.4648,5.4761,5.4929,5.5081,5.5242,5.5363,5.5524,5.5662,5.577,5.5897,5.607,5.6219,5.6326,5.6505,5.6549,5.6616,5.6643,5.6608,5.6599,5.6671,5.6667,5.6697,5.6696,5.6695,5.6695,0,5.4173,5.4464,5.4651,5.4742,5.5004,5.5088,5.52,5.5381,5.5493,5.5662,5.5737,5.5921,5.6022,5.6163,5.6299,5.6278,5.6522,5.652,5.659,5.6587,5.6636,5.6632,5.6754,5.6693,5.6693,5.6693,5.6692,0,5.4189,5.4361,5.4606,5.4828,5.4898,5.5019,5.5215,5.5354,5.5536,5.5613,5.5747,5.5837,5.6005,5.5993,5.6228,5.6162,5.6255,5.6334,5.6342,5.6367,5.635,5.64,5.6501,5.6518,5.6388,5.6386,5.6384,0,5.4029,5.4319,5.4453,5.4682,5.4838,5.4951,5.5089,5.5248,5.5362,5.5509,5.5635,5.5799,5.5823,5.5895,5.5991,5.6127,5.6212,5.6119,5.6327,5.6333,5.6277,5.6372,5.635,5.6462,5.6353,5.6357,5.6359,0,5.3925,5.4245,5.4276,5.4388,5.4625,5.4754,5.4911,5.511,5.5201,5.5367,5.5503,5.5737,5.5765,5.5883,5.5975,5.6067,5.6159,5.6084,5.609,5.6093,5.635,5.6329,5.6347,5.62,5.6204,5.6207,5.6335,0,5.3918,5.4083,5.4174,5.4414,5.4539,5.469,5.4854,5.4963,5.5041,5.5159,5.5359,5.5527,5.5727,5.5787,5.5862,5.6025,5.6021,5.6048,5.6048,5.6108,5.6154,5.6173,5.5966,5.5967,5.5968,5.5969,0,0,5.3726,5.3966,5.4109,5.4268,5.4382,5.4498,5.4646,5.4769,5.5015,5.509,5.5092,5.5446,5.5582,5.5808,5.5839,5.5919,5.5963,5.5935,5.6078,5.6089,5.61,5.6147,5.6164,5.597,5.597,5.5971,5.5971,0,5.3758,5.3899,5.4044,5.418,5.4385,5.4504,5.4538,5.4761,5.4844,5.5041,5.5133,5.5272,5.5549,5.5683,5.5786,5.5912,5.5972,5.596,5.5975,5.608,5.609,5.61,5.6147,5.6162,5.5973,5.5973,5.5973,0,5.3686,5.3853,5.394,5.4205,5.434,5.4495,5.4538,5.4699,5.4816,5.4931,5.5125,5.524,5.5431,5.5623,5.5714,5.5718,5.5972,5.5919,5.5919,5.5932,5.6042,5.6054,5.6065,5.5921,5.592,5.592,0,0,5.3691,5.3846,5.4072,5.4224,5.4303,5.4481,5.458,5.4669,5.484,5.4908,5.5057,5.5219,5.5382,5.5486,5.5647,5.5834,5.5886,5.5906,5.5909,5.591,5.5924,5.6034,5.6046,5.5916,5.5916,5.5916,0,0,5.3694,5.3963,5.4012,5.421,5.4371,5.4602,5.4688,5.4754,5.4916,5.4917,5.5072,5.5121,5.5303,5.5412,5.5351,5.565,5.5647,5.5665,5.5573,5.5579,5.5581,5.5552,5.5416,0,0,0,0,0,5.3812,5.393,5.3972,5.403,5.4364,5.4579,5.4622,5.4755,5.4751,5.4816,5.4952,5.501,5.5412,5.5362,5.5415,5.5481,5.5876,5.5883,5.589,5.5817,5.5821,5.5824,0,0,0,0,0,0,5.3836,5.3906,5.397,5.4203,5.428,5.4576,5.4599,5.4638,5.4748,5.4756,5.4982,5.5017,5.5131,5.5343,5.5389,5.5449,5.54,5.5879,5.5885,5.589,5.5818,5.5821,5.5824,0,0,0,0,0,5.3855,5.3912,5.4413,5.4203,5.4269,5.4474,5.4595,5.4629,5.4715,5.4925,5.4962,5.4806,5.513,5.5178,5.5371,5.5425,5.5369,5.5386,5.5883,5.5888,5.5892,5.582,0,0,0,0,0,0,5.387,5.3943,5.443,5.4455,5.4168,5.446,5.451,5.462,5.488,5.4917,5.4755,5.4759,5.513,5.5167,5.5203,5.5409,5.5344,5.5361,5.5372,5.5886,5.589,5.5894,0,0,0,0,0,0,5.3914,5.3964,5.4442,5.4392,5.4413,5.4446,5.4491,5.4673,5.4881,5.4696,5.4707,5.4754,5.5074,5.516,5.5189,5.5468,5.5325,5.5341,5.5352,5.5359,5.5889,5.5892,0,0,0,0,0,0,5.3937,5.398,5.4386,5.4402,5.442,5.4711,5.461,5.4943,5.484,5.4682,5.4835,5.4832,5.5065,5.5097,5.5178,5.5445,5.5462,5.5325,5.5336,5.5344,5.5349,0,0,0,0,0,0,0,5.3956,5.3638,5.4281,5.441,5.4426,5.4686,5.4693,5.47,5.484,5.4837,5.4835,5.4833,5.5232,5.5249,5.5267,5.5426,0,0,5.5323,5.5331,0,0,0,0,0,0,0,0,5.3623,5.3634,5.4282,5.4287,5.4292,5.4687,5.4693,5.4699,5.4839,5.4837,5.4836,5.4834,5.5236,5.5251,5.5265,0,0,0,0,0,0,0,0,0,0,0,0,0,0,0,5.4282,5.4287,0,5.4688,5.4693,5.4697,5.4839,5.4837,5.4836,5.4835,5.524,5.5252,5.5264,0,0,0,0,0,0,0,0,0,0,0,0,0,0,0,0,0,0,0,0,0,0,0,0,0,0,0,0,0,0,0,0,0,0,0,0,0,0,0,0,0,0,0,0,0,0,0,0,0,0,0,0,0,0,0,0,0,0,0,0,0,0,0,0,0,0,0,0,0]}]]]